Tracking 22879 objects as of 22-Apr-2021
HD Live streaming from Space Station
objects crossing your sky now

CZ-4C R/B

Track CZ-4C R/B now!
10-day predictions


NORAD ID: 36123
Int'l Code: 2009-072C
Perigee: 976.2 km
Apogee: 1,211.2 km
Inclination: 100.4 °
Period: 107.0 minutes
Semi major axis: 7464 km
RCS: 8.5619 m2 (large)
Launch date: December 15, 2009
Source: People's Republic of China (PRC)
Launch site: Taiyaun Space Center, China (TSC)

Note: This is a ROCKET BODY
aabbcc
Your satellite tracking list
Your tracking list is empty




NASA's NSSDC Master Catalog

Two Line Element Set (TLE):
1 36123U 09072C   21111.81926312 -.00000035  00000-0  18436-4 0  9996
2 36123 100.3702  35.2585 0157365 144.3719 286.4149 13.46121159557637
Source of the keplerian elements: AFSPC